Montoursville, PA

2:42 PM EST on February 21, 2017 (GMT -0500)
Williamsport Rgnl

Weather History for KIPT - May, 2014

Change the Weather History Date:

Friday, May 9, 2014

  Actual Average Record
Temperature  
Mean Temperature 68 °F 58 °F  
Max Temperature 76 °F 70 °F 93 °F (1963)
Min Temperature 60 °F 46 °F 30 °F (1948)
Degree Days  
Heating Degree Days 0 8  
Month to date heating degree days 79 82  
Since 1 July heating degree days 6394 5837  
Cooling Degree Days 3 1  
Month to date cooling degree days 3 4  
Year to date cooling degree days 12 9  
Growing Degree Days 18 (Base 50)    
Moisture  
Dew Point 57 °F    
Average Humidity 66    
Maximum Humidity 78    
Minimum Humidity 54    
Precipitation  
Precipitation 0.01 in 0.11 in 1.36 in (1914)
Month to date precipitation 0.34 1.01  
Year to date precipitation 9.90 12.26  
Snow  
Snow 0.00 in 0.00 in 0.20 in (1977)
Month to date snowfall 0.0 0.0  
Since 1 July snowfall 45.9 36.0  
Snow Depth 0.00 in    
Sea Level Pressure  
Sea Level Pressure 30.00 in    
Wind  
Wind Speed 9 mph (SE)    
Max Wind Speed 25 mph    
Max Gust Speed 31 mph    
Visibility 7 miles    
Events Rain    
T = Trace of Precipitation, MM = Missing Value Source: NWS Daily Summary

Daily Weather History Graph

Daily Weather History Graph

Search for Another Location

Airport or City:

Trip Planner

Search our weather history database for the weather conditions in past years. The results will help you decide how hot, cold, wet, or windy it might be!

Date:

Astronomy

May. 09, 2014 Rise Set
Actual Time 5:55 AM EDT 8:13 PM EDT
Civil Twilight 5:24 AM EDT 8:44 PM EDT
Nautical Twilight 4:46 AM EDT 9:22 PM EDT
Astronomical Twilight 4:04 AM EDT 10:04 PM EDT
Moon 3:05 PM EDT (5/9) 3:00 AM EDT (5/9)
Length of Visible Light 15h 19m
Length of Day
14h 17m
Waxing Gibbous, 73% of the Moon is Illuminated
May 9
Waxing Gibbous
May 14
Full
May 21
Last Quarter
May 28
New
Jun 5
First Quarter

Hourly Weather History & Observations

Time (EDT) Temp. Dew Point Humidity Pressure Visibility Wind Dir Wind Speed Gust Speed Precip Events Conditions
12:54 AM 66.9 °F 55.0 °F 66% 30.08 in 10.0 mi East 8.1 mph 17.3 mph N/A   Overcast
1:54 AM 64.9 °F 55.0 °F 70% 30.04 in 9.0 mi Variable 4.6 mph - N/A   Clear
2:54 AM 64.0 °F 55.0 °F 73% 30.05 in 9.0 mi Calm Calm - N/A   Clear
3:54 AM 62.1 °F 54.0 °F 75% 30.05 in 8.0 mi Calm Calm - N/A   Partly Cloudy
4:54 AM 62.6 °F 55.4 °F 77% 30.06 in 8.0 mi Variable 4.6 mph - N/A   Mostly Cloudy
5:54 AM 62.1 °F 55.0 °F 78% 30.06 in 8.0 mi ESE 5.8 mph - N/A   Mostly Cloudy
6:54 AM 62.1 °F 55.0 °F 78% 30.06 in 6.0 mi East 6.9 mph - N/A   Haze
7:54 AM 62.6 °F 55.4 °F 77% 30.09 in 6.0 mi East 5.8 mph - N/A   Haze
8:54 AM 63.0 °F 55.9 °F 78% 30.09 in 5.0 mi East 6.9 mph - N/A   Haze
9:54 AM 63.0 °F 55.9 °F 78% 30.09 in 4.0 mi Calm Calm - N/A   Haze
10:54 AM 64.0 °F 57.0 °F 78% 30.09 in 5.0 mi East 4.6 mph - N/A   Haze
11:54 AM 66.0 °F 57.0 °F 73% 30.07 in 5.0 mi East 9.2 mph - N/A   Haze
12:05 PM 66.9 °F 57.9 °F 73% 30.08 in 5.0 mi East 8.1 mph - N/A   Haze
12:54 PM 69.1 °F 57.9 °F 68% 30.04 in 6.0 mi Variable 5.8 mph - N/A   Haze
1:54 PM 73.0 °F 57.9 °F 59% 30.00 in 7.0 mi East 9.2 mph - N/A   Clear
2:54 PM 75.0 °F 59.0 °F 57% 29.97 in 7.0 mi Variable 4.6 mph - N/A   Clear
3:54 PM 75.0 °F 57.9 °F 55% 29.94 in 7.0 mi South 16.1 mph 21.9 mph N/A   Clear
4:54 PM 75.9 °F 57.9 °F 54% 29.91 in 7.0 mi South 16.1 mph 26.5 mph N/A   Clear
5:54 PM 75.9 °F 59.0 °F 56% 29.90 in 9.0 mi SSE 15.0 mph - N/A   Clear
6:54 PM 73.9 °F 57.0 °F 55% 29.91 in 10.0 mi South 19.6 mph 31.1 mph N/A   Mostly Cloudy
7:12 PM 72.0 °F 57.9 °F 61% 29.95 in 7.0 mi Variable 4.6 mph 27.6 mph 0.00 in Rain Light Rain
7:54 PM 71.1 °F 57.9 °F 63% 29.89 in 8.0 mi SSE 21.9 mph 27.6 mph 0.00 in   Scattered Clouds
8:54 PM 70.0 °F 57.9 °F 65% 29.91 in 10.0 mi SE 13.8 mph - 0.00 in   Mostly Cloudy
9:54 PM 69.1 °F 59.0 °F 70% 29.92 in 8.0 mi SE 13.8 mph 21.9 mph 0.00 in Rain Light Rain
10:54 PM 68.0 °F 60.1 °F 76% 29.90 in 8.0 mi SE 17.3 mph 21.9 mph 0.01 in Rain Light Rain
11:54 PM 68.0 °F 60.1 °F 76% 29.88 in 9.0 mi SSE 13.8 mph 25.3 mph 0.00 in   Overcast